DW1774 Weather Reports


time (UTC)temp
F
wind
direction
speed
knots
gust
knots
rain 1hr
in
rain 24hr
in
rain mn
in
humidity
%
barometer
mb
20260906001904 85 108 0.9 2.6 0.00 1.94 0.63 82 1011.0
20260906001404 85 134 0.9 2.6 0.00 1.97 0.63 82 1011.2
20260906000904 85 136 1.7 7.0 0.63 2.00 0.63 82 1011.3
20260906000404 85 84 1.7 7.0 0.63 2.02 0.63 82 1011.5
20260905235904 86 118 2.6 7.0 0.00 2.05 0.63 82 1011.6
20260905235404 86 69 1.7 6.1 0.00 2.08 0.63 81 1011.5
20260905234904 86 124 1.7 6.1 0.00 2.11 0.63 81 1011.5
20260905234404 86 105 2.6 6.1 0.00 2.14 0.63 81 1011.4
20260905233904 86 100 0.9 6.1 0.00 2.16 0.63 80 1011.4
20260905233404 86 94 0.9 6.1 0.00 2.18 0.63 80 1011.3
20260905232904 86 135 1.7 5.2 0.00 2.21 0.63 80 1011.3
20260905232404 86 130 0.9 5.2 0.00 2.24 0.63 79 1011.3
20260905231404 86 118 1.7 6.1 0.00 2.28 0.63 78 1011.1
20260905230904 87 112 1.7 4.3 0.63 2.30 0.00 78 1011.1
20260905230404 87 141 2.6 5.2 0.00 2.32 0.00 78 1011.2
20260905225904 87 115 1.7 5.2 0.00 2.35 0.63 77 1011.2
20260905225405 87 133 2.6 6.1 0.00 2.37 0.63 77 1011.2
20260905224904 87 155 1.7 6.1 0.00 2.41 0.63 77 1011.1
20260905224404 87 131 2.6 5.2 0.00 2.44 0.63 77 1011.2
20260905223904 87 113 1.7 4.3 0.00 2.47 0.63 77 1011.2
20260905223404 87 118 1.7 7.0 0.00 2.50 0.63 76 1011.2
20260905222904 87 83 1.7 7.0 0.00 2.53 0.63 76 1011.1
20260905222404 88 128 1.7 7.0 0.00 2.55 0.63 77 1011.0
20260905221904 88 142 1.7 7.0 0.00 2.59 0.63 76 1011.0
20260905221404 88 113 0.0 4.3 0.00 2.61 0.63 76 1011.1
20260905220905 88 132 1.7 4.3 0.00 2.63 0.63 75 1011.0
20260905220403 88 153 1.7 6.1 0.00 2.66 0.63 74 1011.0
20260905215903 89 134 2.6 6.1 0.00 2.68 0.63 73 1011.1
20260905215404 89 124 2.6 6.1 0.00 2.70 0.63 72 1011.1
20260905214905 89 143 2.6 7.0 0.00 2.73 0.63 71 1011.1
20260905214404 90 101 2.6 7.0 0.00 2.76 0.63 70 1010.9
20260905213905 90 149 2.6 5.2 0.00 2.79 0.63 68 1010.9
20260905213404 90 164 1.7 4.3 0.00 2.81 0.63 65 1011.0
20260905212904 91 169 1.7 4.3 0.00 2.85 0.63 67 1010.9
20260905212404 91 132 0.9 4.3 0.63 2.87 0.63 68 1011.0
20260905211904 91 148 1.7 4.3 0.00 2.90 0.63 69 1011.0
20260905211404 91 138 2.6 6.1 0.00 2.93 0.63 67 1010.9
20260905210904 90 131 0.9 6.1 0.00 2.96 0.63 73 1010.9
20260905205904 90 145 1.7 4.3 0.00 3.02 0.63 70 1011.0
20260905205404 90 146 0.9 4.3 0.00 3.04 0.63 71 1011.0
20260905204404 90 163 3.5 6.1 0.00 3.10 0.63 73 1011.2
20260905202904 88 166 0.0 2.6 0.00 3.17 0.63 83 1011.5
20260905202404 87 165 0.9 4.3 0.63 3.19 0.00 84 1011.6
20260905201904 86 164 1.7 4.3 0.00 3.21 0.63 88 1011.6
20260905201405 85 158 2.6 4.3 0.00 3.23 0.63 88 1011.6
20260905200904 84 151 0.9 2.6 0.00 3.25 0.63 91 1011.7
20260905200405 83 151 0.9 4.3 0.00 3.28 0.63 90 1011.7
20260905195904 83 151 1.7 4.3 0.00 3.30 0.63 91 1011.7
20260905195405 83 152 0.9 2.6 0.00 3.32 0.63 93 1011.6
20260905194404 83 157 0.9 2.6 0.00 3.36 0.63 94 1011.5
20260905193905 83 159 0.9 2.6 0.00 3.37 0.63 94 1011.6
20260905193403 83 165 0.0 1.7 0.00 3.37 0.63 95 1011.7
20260905192904 82 165 0.0 1.7 0.00 3.37 0.63 95 1011.8
20260905192404 82 165 0.9 1.7 0.00 3.37 0.63 95 1012.0
20260905191404 82 165 0.9 1.7 0.00 3.37 0.63 95 1012.4
20260905181904 81 167 0.0 2.6 1.17 3.37 0.63 95 1013.2
20260905181404 80 167 0.0 2.6 1.31 3.37 0.63 95 1013.3
20260905180904 79 167 0.9 2.6 0.76 3.37 0.00 94 1013.4
20260905180404 79 167 0.0 2.6 0.07 3.37 0.63 94 1013.3
20260905175904 79 167 0.0 2.6 1.03 3.37 0.63 94 1013.3
20260905173904 78 138 2.6 5.2 0.65 3.37 0.65 92 1013.6
20260905173405 78 143 2.6 13.0 1.16 3.37 1.16 90 1013.8
20260905172904 78 126 1.7 13.0 1.06 3.37 1.06 90 1014.0
20260905172404 78 151 11.3 13.0 0.90 3.36 0.90 89 1014.1
20260905171905 79 142 12.2 13.0 0.82 3.36 0.82 88 1014.1
20260905171404 79 132 11.3 13.0 0.68 3.36 0.68 87 1014.2
20260905170404 82 170 5.2 10.4 0.56 3.36 0.56 85 1014.2
20260905165903 84 151 4.3 10.4 4.63 3.36 4.63 83 1014.3
20260905164904 88 166 4.3 7.8 0.33 3.32 0.33 77 1014.1
20260905164404 89 154 1.7 10.4 0.00 3.31 0.00 73 1014.0
20260905163404 90 66 0.0 0.0 0.00 3.31 0.00 71 1013.9
20260905162404 91 66 0.0 1.7 0.00 3.31 0.00 70 1013.9
20260905161904 91 66 0.0 1.7 0.00 3.31 0.00 69 1013.9
20260905161404 91 0 0.0 0.0 0.00 3.31 0.00 68 1013.8
20260905160904 91 0 0.0 0.0 0.00 3.31 0.00 69 1013.8
20260905155904 91 0 0.0 0.0 0.00 3.31 0.00 70 1013.7
20260905155405 91 0 0.0 0.0 0.00 3.31 0.00 69 1013.7
20260905154904 91 0 0.0 0.0 0.00 3.31 0.00 71 1013.7
20260905154404 91 0 0.0 0.0 0.00 3.31 0.00 71 1013.7
20260905153904 91 0 0.0 0.0 0.00 3.31 0.00 72 1013.7
20260905153404 91 0 0.0 0.0 0.00 3.31 0.00 73 1013.7
20260905152904 91 0 0.0 0.0 0.00 3.31 0.00 72 1013.7
20260905151905 89 0 0.0 0.0 0.00 3.31 0.00 76 1013.7
20260905151404 90 0 0.0 0.0 0.00 3.31 0.00 76 1013.7
20260905150905 90 0 0.0 0.0 0.00 3.31 0.00 76 1013.8
20260905150405 90 0 0.0 0.0 0.00 3.31 0.00 75 1013.7
20260905145904 90 0 0.0 0.0 0.00 3.31 0.00 76 1013.7
20260905145403 90 0 0.0 0.0 0.00 3.31 0.00 76 1013.7
20260905144904 90 0 0.0 0.0 0.00 3.31 0.00 76 1013.7
20260905144404 89 0 0.0 0.0 0.00 3.31 0.00 77 1013.7
20260905143904 89 0 0.0 0.0 0.00 3.31 0.00 80 1013.8
20260905143404 88 0 0.0 0.0 0.00 3.31 0.00 81 1013.8
20260905142904 87 0 0.0 0.0 0.00 3.31 0.00 81 1013.7
20260905142404 87 0 0.0 0.0 0.00 3.31 0.00 81 1013.7
20260905141904 86 0 0.0 0.0 0.00 3.31 0.00 84 1013.7
20260905141404 85 0 0.0 0.0 0.00 3.31 0.00 87 1013.7
20260905140905 84 0 0.0 0.0 0.00 3.31 0.00 89 1013.6
20260905140404 83 0 0.0 0.0 0.00 3.31 0.00 92 1013.6
20260905135904 83 0 0.0 0.0 0.00 3.31 0.00 94 1013.5
20260905135404 82 0 0.0 0.0 0.00 3.31 0.00 95 1013.5
20260905134904 81 0 0.0 0.0 0.00 3.31 0.00 95 1013.5
20260905133904 80 0 0.0 0.0 0.00 3.31 0.00 95 1013.4
20260905133404 80 0 0.0 0.0 0.00 3.31 0.00 95 1013.5
20260905132905 79 0 0.0 0.0 0.00 3.31 0.00 95 1013.6
20260905132405 79 0 0.0 0.0 0.00 3.31 0.00 95 1013.6
20260905131904 79 0 0.0 0.0 0.00 3.31 0.00 95 1013.4
20260905130904 78 0 0.0 0.0 0.00 3.31 0.00 95 1013.3
20260905130404 78 0 0.0 0.0 0.00 3.31 0.00 94 1013.3
20260905125904 78 0 0.0 0.0 0.00 3.31 0.00 94 1013.3
20260905125405 77 0 0.0 0.0 0.00 3.31 0.00 94 1013.2
20260905124904 77 0 0.0 0.0 0.00 3.31 0.00 94 1013.1
20260905123905 77 0 0.0 0.0 0.00 3.31 0.00 94 1013.0
20260905123404 77 0 0.0 0.0 0.00 3.31 0.00 94 1013.0
20260905122405 77 0 0.0 0.0 0.00 3.31 0.00 93 1012.9
20260905121904 77 0 0.0 0.0 0.00 3.31 0.00 93 1012.9
20260905120903 77 0 0.0 0.0 0.00 3.31 0.00 93 1012.7
20260905120404 77 0 0.0 0.0 0.00 3.31 0.00 93 1012.6
20260905115904 77 0 0.0 0.0 0.00 3.31 0.00 93 1012.5
20260905115404 77 0 0.0 0.0 0.00 3.31 0.00 93 1012.5
20260905114904 77 0 0.0 0.0 0.00 3.31 0.00 93 1012.4
20260905114404 77 0 0.0 0.0 0.00 3.31 0.00 93 1012.4
20260905113905 77 0 0.0 0.0 0.00 3.31 0.00 93 1012.4
20260905113403 77 0 0.0 0.0 0.00 3.31 0.00 93 1012.3
20260905112904 77 0 0.0 0.0 0.00 3.31 0.00 93 1012.2
20260905112405 77 0 0.0 0.0 0.00 3.31 0.00 93 1012.2
20260905110904 77 0 0.0 0.0 0.00 3.31 0.00 93 1012.1
20260905110405 77 0 0.0 0.0 0.00 3.31 0.00 93 1012.0
20260905105903 78 0 0.0 0.0 0.00 3.31 0.00 93 1012.0
20260905105404 77 0 0.0 0.0 0.00 3.31 0.00 93 1012.0
20260905104905 78 0 0.0 0.0 0.00 3.31 0.00 93 1012.0
20260905104404 78 0 0.0 0.0 0.00 3.31 0.00 93 1012.0
20260905103904 78 0 0.0 0.0 0.00 3.31 0.00 93 1012.0
20260905103405 78 0 0.0 0.0 0.00 3.31 0.00 93 1011.9
20260905102904 78 0 0.0 0.0 0.00 3.31 0.00 93 1011.9
20260905102403 78 0 0.0 0.0 0.00 3.31 0.00 93 1011.9
20260905101904 78 0 0.0 0.0 0.00 3.31 0.00 92 1011.9
20260905101404 78 0 0.0 0.0 0.00 3.31 0.00 92 1011.9
20260905100904 78 0 0.0 0.0 0.00 3.31 0.00 92 1012.0
20260905100403 78 0 0.0 0.0 0.00 3.31 0.00 92 1012.1
20260905095904 78 0 0.0 0.0 0.00 3.31 0.00 92 1012.0
20260905094904 78 0 0.0 0.0 0.00 3.31 0.00 92 1012.0
20260905094405 78 0 0.0 0.0 0.00 3.31 0.00 92 1012.0
20260905093904 78 0 0.0 0.0 0.00 3.31 0.00 92 1012.0
20260905093404 78 0 0.0 0.0 0.00 3.31 0.00 92 1011.9
20260905092405 78 0 0.0 0.0 0.00 3.31 0.00 92 1011.9
20260905091904 78 0 0.0 0.0 0.00 3.31 0.00 92 1011.9
20260905091404 78 0 0.0 0.0 0.00 3.31 0.00 92 1011.9
20260905090404 78 0 0.0 0.0 0.00 3.31 0.00 92 1011.8
20260905085904 78 0 0.0 0.0 0.00 3.31 0.00 92 1011.9
20260905085404 78 0 0.0 0.0 0.00 3.31 0.00 92 1011.8
20260905084405 79 0 0.0 0.0 0.00 3.31 0.00 92 1011.8
20260905083904 79 0 0.0 0.0 0.00 3.31 0.00 92 1011.8
20260905083403 79 0 0.0 0.0 0.00 3.31 0.00 91 1011.7
20260905082904 79 0 0.0 0.0 0.00 3.31 0.00 91 1011.6
20260905082405 79 0 0.0 0.0 0.00 3.31 0.00 91 1011.6
20260905081905 79 0 0.0 0.0 0.00 3.31 0.00 91 1011.7
20260905081404 79 0 0.0 0.0 0.00 3.31 0.00 91 1011.7
20260905080404 79 0 0.0 0.0 0.00 3.31 0.00 91 1011.7
20260905075404 79 0 0.0 0.0 0.00 3.31 0.00 91 1011.8
20260905074905 79 0 0.0 0.0 0.00 3.31 0.00 91 1011.8
20260905074404 79 0 0.0 0.0 0.00 3.31 0.00 91 1011.8
20260905073904 79 0 0.0 0.0 0.00 3.31 0.00 91 1011.8
20260905073404 79 0 0.0 0.0 0.00 3.31 0.00 91 1011.8
20260905072404 79 0 0.0 0.0 0.00 3.31 0.00 91 1012.0
20260905071904 80 0 0.0 0.0 0.00 3.31 0.00 90 1012.1
20260905070904 80 0 0.0 0.0 0.00 3.31 0.00 90 1012.0
20260905070404 80 0 0.0 0.0 0.00 3.31 0.00 90 1012.1
20260905065904 80 0 0.0 0.0 0.00 3.31 0.00 90 1012.2
20260905065403 80 0 0.0 0.0 0.00 3.31 0.00 90 1012.3
20260905064904 80 0 0.0 0.0 0.00 3.31 0.00 90 1012.4
20260905064404 80 0 0.0 0.0 0.00 3.31 0.00 90 1012.3
20260905063904 80 0 0.0 0.0 0.00 3.31 0.00 90 1012.4
20260905063405 80 0 0.0 0.0 0.00 3.31 0.00 90 1012.4
20260905062904 80 0 0.0 0.0 0.00 3.31 0.00 90 1012.4
20260905062404 80 0 0.0 0.0 0.00 3.31 0.00 90 1012.4
20260905061405 80 0 0.0 0.0 0.00 3.31 0.00 90 1012.4
20260905060404 80 0 0.0 0.0 0.00 3.31 0.00 89 1012.4
20260905055903 81 0 0.0 0.0 0.60 3.31 0.00 89 1012.4
20260905055403 81 0 0.0 0.0 3.75 3.31 0.00 89 1012.5
20260905054904 81 0 0.0 0.0 7.05 3.31 0.00 89 1012.6
20260905054404 81 0 0.0 0.0 9.60 3.31 0.00 89 1012.6
20260905053904 81 0 0.0 0.0 9.99 3.31 0.00 89 1012.6
20260905053404 81 0 0.0 0.0 9.99 3.31 0.00 89 1012.5
20260905052904 81 0 0.0 0.0 9.99 3.31 0.00 89 1012.6
20260905052403 81 0 0.0 0.0 9.99 3.31 0.00 88 1012.6
20260905051904 81 0 0.0 0.0 9.99 3.31 0.00 88 1012.5
20260905051404 81 0 0.0 0.0 9.99 3.31 0.00 88 1012.5
20260905050903 81 0 0.0 0.0 9.99 3.31 0.00 88 1012.5
20260905050404 81 0 0.0 0.0 9.99 3.31 0.00 88 1012.5
20260905045904 81 0 0.0 0.0 9.99 3.31 3.33 88 1012.5
20260905044905 82 0 0.0 0.0 9.99 3.25 3.26 88 1012.6
20260905044404 82 0 0.0 0.0 9.99 3.22 3.24 88 1012.6
20260905043404 82 0 0.0 0.0 9.99 3.18 3.19 87 1012.6
20260905042904 82 0 0.0 0.0 9.99 3.14 3.16 87 1012.7
20260905041905 82 0 0.0 0.0 9.99 3.09 3.11 87 1012.8
20260905041405 82 0 0.0 0.0 9.99 3.07 3.08 86 1012.8
20260905040904 82 0 0.0 0.0 9.99 3.04 3.05 86 1012.8
20260905040405 82 0 0.0 0.0 9.99 3.01 3.03 86 1012.8
20260905035404 82 0 0.0 0.0 9.99 2.96 2.97 86 1012.9
20260905034905 83 0 0.0 0.0 9.99 2.92 2.93 86 1012.9
20260905034405 83 0 0.0 0.0 9.99 2.90 2.91 86 1012.9
20260905033905 83 0 0.0 0.0 9.99 2.86 2.88 86 1013.0
20260905032904 83 0 0.0 0.0 9.99 2.81 2.82 85 1012.9
20260905032405 83 0 0.0 0.0 9.99 2.79 2.80 85 1012.9
20260905031904 83 0 0.0 0.0 9.99 2.76 2.78 84 1012.9
20260905031405 83 0 0.0 0.0 9.99 2.74 2.75 84 1012.9
20260905030404 83 0 0.0 0.0 9.99 2.67 2.69 83 1013.0
20260905025405 83 0 0.0 0.0 9.99 2.61 2.62 83 1012.9
20260905024905 84 0 0.0 0.0 9.99 2.58 2.59 83 1012.8
20260905023904 84 0 0.0 0.0 9.99 2.52 2.53 82 1012.7
20260905023404 84 0 0.0 0.0 9.99 2.50 2.51 82 1012.7
20260905022905 84 0 0.0 0.0 9.99 2.46 2.48 81 1012.7
20260905022404 84 0 0.0 0.0 9.99 2.44 2.45 81 1012.7
20260905021405 84 0 0.0 0.0 9.99 2.39 2.40 80 1012.6
20260905020404 85 0 0.0 0.0 9.99 2.33 2.35 80 1012.3
20260905015904 85 0 0.0 0.0 9.99 2.31 2.32 80 1012.3
20260905015405 85 0 0.0 0.0 9.99 2.29 2.30 79 1012.3
20260905014905 85 0 0.0 0.0 9.99 2.26 2.27 79 1012.3
20260905014404 85 0 0.0 0.0 9.99 2.23 2.24 79 1012.3
20260905013904 85 0 0.0 0.0 9.99 2.19 2.21 78 1012.3
20260905013405 85 0 0.0 0.0 9.99 2.17 2.18 78 1012.2
20260905012905 85 0 0.0 0.0 9.99 2.14 2.15 78 1012.1
20260905012404 86 0 0.0 0.0 9.99 2.10 2.12 78 1012.1
20260905011904 86 0 0.0 0.0 9.99 2.08 2.09 78 1012.0
20260905011404 86 0 0.0 0.0 9.99 2.06 2.07 77 1012.0
20260905010905 86 0 0.0 0.0 9.99 2.04 2.05 77 1012.0
20260905010405 86 0 0.0 0.0 9.99 2.01 2.02 77 1012.0
20260905005905 86 0 0.0 0.0 9.99 1.98 1.99 76 1011.8
20260905005405 87 0 0.0 0.0 9.99 1.95 1.96 76 1011.8
20260905004905 87 0 0.0 0.0 9.99 1.92 1.94 76 1011.9
20260905004404 87 0 0.0 0.0 9.99 1.90 1.91 75 1011.8
20260905003905 87 0 0.0 0.0 9.99 1.86 1.88 75 1011.7
20260905003404 87 0 0.0 0.0 9.99 1.84 1.85 75 1011.6